Fort Yukon, AK

11:35 AM AKST on December 10, 2016 (GMT -0900)
Fort Yukon

Weather History for PFYU - October, 2013

Change the Weather History Date:

Thursday, October 24, 2013

  Actual Average Record
Temperature  
Mean Temperature 21 °F -  
Max Temperature 23 °F 16 °F 41 °F (2002)
Min Temperature 19 °F 4 °F -20 °F (1996)
Degree Days  
Heating Degree Days 44    
Moisture  
Dew Point 18 °F    
Average Humidity 87    
Maximum Humidity 100    
Minimum Humidity 80    
Precipitation  
Precipitation 0.00 in - - ()
Sea Level Pressure  
Sea Level Pressure 30.00 in    
Wind  
Wind Speed 1 mph (ENE)    
Max Wind Speed 8 mph    
Max Gust Speed -    
Visibility 9 miles    
Events      
Averages and records for this station are not official NWS values.
T = Trace of Precipitation, MM = Missing Value Source: NWS Daily Summary

Daily Weather History Graph

Daily Weather History Graph

Search for Another Location

Airport or City:

Trip Planner

Search our weather history database for the weather conditions in past years. The results will help you decide how hot, cold, wet, or windy it might be!

Date:

Astronomy

Oct. 24, 2013 Rise Set
Actual Time 9:12 AM AKDT 5:36 PM AKDT
Civil Twilight 8:16 AM AKDT 6:32 PM AKDT
Nautical Twilight 7:14 AM AKDT 7:34 PM AKDT
Astronomical Twilight 6:13 AM AKDT 8:34 PM AKDT
Moon 9:05 PM AKDT (10/24) 3:27 PM AKDT (10/24)
Length of Visible Light 10h 16m
Length of Day
8h 23m
Waning Gibbous, 70% of the Moon is Illuminated
Oct 24
Waning Gibbous
Oct 26
Last Quarter
Nov 3
New
Nov 9
First Quarter
Nov 17
Full

Hourly Weather History & Observations

Time (AKDT) Temp. Windchill Dew Point Humidity Pressure Visibility Wind Dir Wind Speed Gust Speed Precip Events Conditions
12:16 AM 21.2 °F - 17.6 °F 86% 29.98 in 10.0 mi Calm Calm - N/A   Mostly Cloudy
12:36 AM 21.2 °F - 15.8 °F 80% 29.98 in 5.0 mi Calm Calm - N/A   Mostly Cloudy
12:56 AM 19.4 °F - 15.8 °F 86% 29.99 in 5.0 mi Calm Calm - N/A   Mostly Cloudy
1:16 AM 19.4 °F - 15.8 °F 86% 29.99 in 5.0 mi Calm Calm - N/A   Overcast
1:36 AM 21.2 °F - 17.6 °F 86% 30.00 in 8.0 mi Calm Calm - N/A   Overcast
1:56 AM 21.2 °F - 17.6 °F 86% 30.00 in 10.0 mi Calm Calm - N/A   Overcast
2:16 AM 21.2 °F - 17.6 °F 86% 30.00 in 10.0 mi Calm Calm - N/A   Overcast
2:36 AM 21.2 °F - 19.4 °F 93% 30.00 in 10.0 mi Calm Calm - N/A   Overcast
2:56 AM 21.2 °F - 19.4 °F 93% 30.00 in 10.0 mi Calm Calm - N/A   Overcast
3:16 AM 23.0 °F - 19.4 °F 86% 30.01 in 10.0 mi Calm Calm - N/A   Overcast
3:36 AM 23.0 °F - 19.4 °F 86% 30.01 in 10.0 mi Calm Calm - N/A   Overcast
4:16 AM 23.0 °F - 19.4 °F 86% 30.02 in 10.0 mi Calm Calm - N/A   Overcast
4:36 AM 23.0 °F - 19.4 °F 86% 30.02 in 9.0 mi Calm Calm - N/A   Overcast
4:56 AM 23.0 °F - 19.4 °F 86% 30.02 in 8.0 mi Calm Calm - N/A   Overcast
5:36 AM 23.0 °F - 19.4 °F 86% 30.03 in 10.0 mi Calm Calm - N/A   Overcast
5:56 AM 21.2 °F - 19.4 °F 93% 30.03 in 10.0 mi Calm Calm - N/A   Overcast
6:16 AM 23.0 °F - 19.4 °F 86% 30.04 in 10.0 mi Calm Calm - N/A   Overcast
6:36 AM 21.2 °F - 19.4 °F 93% 30.03 in 10.0 mi Calm Calm - N/A   Overcast
6:56 AM 21.2 °F - 19.4 °F 93% 30.03 in 10.0 mi Calm Calm - N/A   Overcast
7:16 AM 21.2 °F - 19.4 °F 93% 30.04 in 10.0 mi Calm Calm - N/A   Overcast
7:36 AM 21.2 °F - 19.4 °F 93% 30.04 in 10.0 mi Calm Calm - N/A   Overcast
7:56 AM 21.2 °F 16.4 °F 19.4 °F 93% 30.04 in 10.0 mi East 3.5 mph - N/A   Overcast
8:16 AM 21.2 °F - 17.6 °F 86% 30.05 in 10.0 mi Calm Calm - N/A   Overcast
8:36 AM 21.2 °F - 17.6 °F 86% 30.05 in 10.0 mi Calm Calm - N/A   Overcast
8:56 AM 21.2 °F - 19.4 °F 93% 30.05 in 10.0 mi Calm Calm - N/A   Overcast
9:16 AM 21.2 °F - 17.6 °F 86% 30.05 in 7.0 mi Calm Calm - N/A   Overcast
9:36 AM 21.2 °F - 17.6 °F 86% 30.05 in 10.0 mi Calm Calm - N/A   Overcast
10:16 AM 21.2 °F 16.4 °F 19.4 °F 93% 30.05 in 3.0 mi ENE 3.5 mph - N/A   Overcast
10:36 AM 21.2 °F 16.4 °F 17.6 °F 86% 30.05 in 5.0 mi ENE 3.5 mph - N/A   Mostly Cloudy
10:56 AM 21.2 °F 16.4 °F 17.6 °F 86% 30.04 in 10.0 mi ENE 3.5 mph - N/A   Mostly Cloudy
11:16 AM 21.2 °F 16.4 °F 17.6 °F 86% 30.05 in 10.0 mi ENE 3.5 mph - N/A   Overcast
11:56 AM 21.2 °F 14.9 °F 17.6 °F 86% 30.05 in 10.0 mi East 4.6 mph - N/A   Overcast
12:16 PM 21.2 °F 14.9 °F 17.6 °F 86% 30.05 in 10.0 mi ENE 4.6 mph - N/A   Overcast
12:36 PM 21.2 °F 16.4 °F 17.6 °F 86% 30.04 in 10.0 mi East 3.5 mph - N/A   Overcast
12:56 PM 21.2 °F 16.4 °F 17.6 °F 86% 30.04 in 10.0 mi ESE 3.5 mph - N/A   Overcast
1:16 PM 21.2 °F 16.4 °F 17.6 °F 86% 30.03 in 10.0 mi East 3.5 mph - N/A   Overcast
1:36 PM 21.2 °F - 17.6 °F 86% 30.04 in 10.0 mi Calm Calm - N/A   Overcast
1:56 PM 21.2 °F - 17.6 °F 86% 30.04 in 10.0 mi Calm Calm - N/A   Overcast
2:16 PM 21.2 °F - 17.6 °F 86% 30.03 in 10.0 mi Calm Calm - N/A   Overcast
2:36 PM 21.2 °F 16.4 °F 17.6 °F 86% 30.02 in 5.0 mi ENE 3.5 mph - N/A   Overcast
2:56 PM 21.2 °F 13.6 °F 17.6 °F 86% 30.01 in 9.0 mi East 5.8 mph - N/A   Overcast
3:16 PM 21.2 °F 13.6 °F 17.6 °F 86% 30.00 in 10.0 mi ENE 5.8 mph - N/A   Overcast
3:36 PM 21.2 °F 14.9 °F 15.8 °F 80% 29.99 in 10.0 mi East 4.6 mph - N/A   Overcast
3:56 PM 21.2 °F 14.9 °F 17.6 °F 86% 29.98 in 10.0 mi ENE 4.6 mph - N/A   Overcast
4:16 PM 21.2 °F 16.4 °F 17.6 °F 86% 29.98 in 10.0 mi East 3.5 mph - N/A   Overcast
4:36 PM 21.2 °F - 17.6 °F 86% 29.98 in 3.0 mi Calm Calm - N/A   Overcast
4:56 PM 21.2 °F - 17.6 °F 86% 29.99 in 8.0 mi Calm Calm - N/A   Overcast
5:16 PM 21.2 °F - 17.6 °F 86% 29.99 in 1.5 mi Calm Calm - N/A   Overcast
5:36 PM 21.2 °F 16.4 °F 17.6 °F 86% 29.98 in 3.0 mi East 3.5 mph - N/A   Overcast
5:56 PM 21.2 °F 16.4 °F 17.6 °F 86% 29.97 in 5.0 mi East 3.5 mph - N/A   Overcast
6:16 PM 21.2 °F 16.4 °F 17.6 °F 86% 29.97 in 10.0 mi ENE 3.5 mph - N/A   Overcast
6:36 PM 21.2 °F 12.6 °F 17.6 °F 86% 29.96 in 10.0 mi East 6.9 mph - N/A   Overcast
6:56 PM 21.2 °F 16.4 °F 17.6 °F 86% 29.95 in 10.0 mi ENE 3.5 mph - N/A   Overcast
7:16 PM 21.2 °F 16.4 °F 17.6 °F 86% 29.95 in 10.0 mi East 3.5 mph - N/A   Overcast
7:36 PM 21.2 °F 14.9 °F 17.6 °F 86% 29.95 in 10.0 mi ENE 4.6 mph - N/A   Overcast
7:56 PM 21.2 °F 16.4 °F 17.6 °F 86% 29.96 in 10.0 mi East 3.5 mph - N/A   Overcast
8:16 PM 21.2 °F 16.4 °F 17.6 °F 86% 29.95 in 10.0 mi East 3.5 mph - N/A   Overcast
8:36 PM 21.2 °F 16.4 °F 17.6 °F 86% 29.94 in 10.0 mi ENE 3.5 mph - N/A   Overcast
8:56 PM 21.2 °F 11.7 °F 19.4 °F 93% 29.92 in 10.0 mi NE 8.1 mph - N/A   Mostly Cloudy
9:16 PM 21.2 °F 16.4 °F 17.6 °F 86% 29.91 in 10.0 mi East 3.5 mph - N/A   Mostly Cloudy
9:36 PM 21.2 °F 16.4 °F 17.6 °F 86% 29.92 in 10.0 mi ENE 3.5 mph - N/A   Overcast
9:56 PM 21.2 °F - 17.6 °F 86% 29.94 in 10.0 mi Calm Calm - N/A   Overcast
10:16 PM 21.2 °F 14.9 °F 17.6 °F 86% 29.93 in 10.0 mi NE 4.6 mph - N/A   Mostly Cloudy
10:36 PM 21.2 °F 13.6 °F 17.6 °F 86% 29.91 in 10.0 mi NE 5.8 mph - N/A   Clear
10:56 PM 21.2 °F 13.6 °F 19.4 °F 93% 29.90 in 10.0 mi ENE 5.8 mph - N/A   Clear
11:16 PM 21.2 °F 12.6 °F 21.2 °F 100% 29.91 in 10.0 mi NE 6.9 mph - N/A   Clear
11:36 PM 23.0 °F 14.7 °F 19.4 °F 86% 29.91 in 10.0 mi NE 6.9 mph - N/A   Scattered Clouds
11:56 PM 21.2 °F - 19.4 °F 93% 29.93 in 10.0 mi Calm Calm - N/A   Mostly Cloudy